This demonstration page uses our WeatherBlox Daily Observations layout. Learn more.

Left ArrowRight Arrow

34.02893, -84.19858

Hourly Observations for March 8, 2022

Temp ( °F °C ) Dew Point ( °F °C ) Humidity (%) Winds ( mph kmh ) Pressure ( in mb ) Visibility ( mi km ) Precip ( " mm )
12:53 am 00:53 Mostly Cloudy 52 11.1 49 9.4 89 89 WNW 7 11 30.04 1017 10 16 0.00 0.00
1:12 am 01:12 Partly Cloudy 51 10.6 48 8.9 89 89 NW 12 19 30.07 1018 10 16 0.00 0.00
1:53 am 01:53 Partly Cloudy 50 10 47 8.3 89 89 WNW 7 11 30.05 1018 10 16 0.00 0.00
2:53 am 02:53 Mostly Clear 48 8.9 44 6.7 86 86 NW 6 9 30.05 1018 10 16 0.00 0.00
3:53 am 03:53 Mostly Clear 46 7.8 43 6.1 89 89 W 6 9 30.06 1018 10 16 0.00 0.00
4:53 am 04:53 Mostly Clear 45 7.2 42 5.6 90 90 WNW 7 11 30.07 1018 10 16 0.00 0.00
5:53 am 05:53 Clear 44 6.7 41 5 89 89 WNW 5 7 30.08 1019 10 16 0.00 0.00
6:53 am 06:53 Mostly Clear 44 6.7 40 4.4 85 85 WNW 7 11 30.10 1019 10 16 0.00 0.00
7:53 am 07:53 Sunny 45 7.2 40 4.4 83 83 NNW 5 7 30.10 1019 10 16 0.00 0.00
8:53 am 08:53 Cloudy 47 8.3 41 5 80 80 NW 7 11 30.12 1020 10 16 0.00 0.00
9:53 am 09:53 Cloudy 48 8.9 40 4.4 74 74 W 6 9 30.11 1020 10 16 0.00 0.00
10:53 am 10:53 Cloudy 49 9.4 40 4.4 71 71 WSW 3 6 30.11 1020 10 16 0.00 0.00
11:53 am 11:53 Cloudy 50 10 41 5 71 71 NNW 3 6 30.09 1019 10 16 0.00 0.00
12:53 pm 12:53 Cloudy 51 10.6 41 5 69 69 Calm 30.06 1018 10 16 0.00 0.00
1:53 pm 13:53 Cloudy 51 10.6 42 5.6 71 71 Calm 30.04 1017 10 16 0.00 0.00
2:53 pm 14:53 Cloudy with Rain 50 10 46 7.8 86 86 Calm 30.01 1016 2 3 0.09 2.29
3:00 pm 15:00 Cloudy with Light Rain 49 9.4 47 8.3 93 93 SSW 3 6 30.02 1017 2 2 0.02 0.51
3:04 pm 15:04 Cloudy with Light Rain 50 10 47 8.3 89 89 Calm 30.03 1017 3 5 0.02 0.51
3:53 pm 15:53 Cloudy with Light Rain 49 9.4 46 7.8 90 90 N 3 6 30.02 1017 4 6 0.07 1.78
4:02 pm 16:02 Cloudy with Light Rain 49 9.4 46 7.8 90 90 NW 6 9 30.03 1017 3 4 0.02 0.51
4:06 pm 16:06 Cloudy with Nearby Thunderstorms 49 9.4 46 7.8 90 90 NW 7 11 30.03 1017 3 5 0.02 0.51
4:24 pm 16:24 Cloudy with Light Rain 48 8.9 46 7.8 93 93 NNW 7 11 30.03 1017 3 4 0.04 1.02
4:40 pm 16:40 Cloudy with Nearby Thunderstorms 48 8.9 46 7.8 93 93 NNE 6 9 30.03 1017 3 4 0.06 1.52
4:53 pm 16:53 Cloudy with Thunderstorms 47 8.3 46 7.8 97 97 N 6 9 30.02 1017 3 4 0.09 2.29
5:08 pm 17:08 Cloudy with Strong Thunderstorms 47 8.3 46 7.8 97 97 Calm 30.03 1017 1 1 0.14 3.56
5:18 pm 17:18 Cloudy with Thunderstorms 47 8.3 47 8.3 100 100 Calm 30.02 1017 2 3 0.17 4.32
5:20 pm 17:20 Cloudy with Nearby Thunderstorms 47 8.3 47 8.3 100 100 N 5 7 30.02 1017 2 3 0.18 4.57
5:26 pm 17:26 Cloudy with Nearby Thunderstorms 47 8.3 47 8.3 100 100 undefined N/A 30.02 1017 2 3 0.21 5.33
5:53 pm 17:53 Cloudy with Nearby Thunderstorms 48 8.9 47 8.3 96 96 S 3 6 30.03 1017 3 4 0.33 8.38
6:05 pm 18:05 Cloudy with Nearby Thunderstorms 48 8.9 47 8.3 96 96 VRB 5 7 30.00 1016 2 3 0.06 1.52
6:22 pm 18:22 Cloudy with Nearby Thunderstorms 48 8.9 47 8.3 96 96 VRB 3 6 30.01 1016 3 5 0.13 3.30
6:28 pm 18:28 Cloudy with Rain 48 8.9 47 8.3 96 96 E 5 7 30.00 1016 3 5 0.15 3.81
6:35 pm 18:35 Cloudy with Rain 48 8.9 47 8.3 96 96 E 6 9 29.98 1015 2 3 0.18 4.57
6:53 pm 18:53 Cloudy with Rain 48 8.9 48 8.9 100 100 E 7 11 29.96 1014 3 5 0.25 6.35
7:10 pm 19:10 Cloudy with Light Rain 49 9.4 48 8.9 97 97 ESE 5 7 29.96 1015 6 10 0.02 0.51
7:53 pm 19:53 Cloudy with Light Rain 50 10 49 9.4 96 96 E 3 6 29.97 1015 4 6 0.12 3.05
7:57 pm 19:57 Cloudy with Thunderstorms 50 10 49 9.4 96 96 Calm 29.96 1015 3 4 0.02 0.51
8:09 pm 20:09 Cloudy with Thunderstorms 50 10 49 9.4 96 96 Calm 29.97 1015 3 5 0.05 1.27
8:11 pm 20:11 Cloudy with Nearby Thunderstorms 50 10 49 9.4 96 96 E 3 6 29.96 1015 3 4 0.06 1.52
8:31 pm 20:31 Cloudy with Light Rain 50 10 49 9.4 96 96 Calm 29.95 1014 3 4 0.08 2.03
8:53 pm 20:53 Cloudy with Mist and Fog 50 10 49 9.4 96 96 VRB 3 6 29.94 1014 3 4 0.08 2.03
9:22 pm 21:22 Cloudy with Mist and Fog 50 10 50 10 100 100 VRB 3 6 29.95 1014 3 4 0.00 0.00
9:53 pm 21:53 Cloudy 51 10.6 50 10 96 96 Calm 29.96 1015 10 16 0.00 0.00
10:53 pm 22:53 Cloudy 52 11.1 51 10.6 97 97 undefined N/A 29.94 1014 10 16 0.00 0.00
11:53 pm 23:53 Cloudy with Mist and Fog 52 11.1 52 11.1 100 100 Calm 29.94 1014 4 6 0.00 0.00

Powered by AerisWeather